Precipitable_Water
1.50 1.37 1.28 1.28 1.39 1.43 1.49 1.53 1.63 1.64 1.70 1.76 1.77 1.69 1.69 1.71 1.73 1.74 1.79 1.73 1.78 1.78
1.47 1.38 1.28 1.30 1.38 1.45 1.54 1.57 1.62 1.63 1.64 1.67 1.69 1.66 1.64 1.68 1.67 1.65 1.65 1.68 1.73 1.73
1.42 1.42 1.33 1.27 1.23 1.36 1.44 1.49 1.53 1.53 1.57 1.54 1.56 1.58 1.61 1.59 1.62 1.57 1.53 1.58 1.66 1.72
1.38 1.41 1.38 1.21 1.17 1.24 1.36 1.38 1.40 1.48 1.51 1.41 1.49 1.55 1.54 1.52 1.53 1.48 1.49 1.58 1.65 1.66
1.40 1.41 1.34 1.22 1.14 1.19 1.20 1.30 1.34 1.40 1.42 1.40 1.43 1.47 1.45 1.43 1.47 1.48 1.47 1.49 1.55 1.60
1.41 1.36 1.30 1.26 1.17 1.14 1.12 1.19 1.25 1.33 1.35 1.40 1.46 1.50 1.53 1.55 1.56 1.57 1.52 1.53 1.56 1.62
1.36 1.38 1.31 1.28 1.23 1.14 1.07 1.07 1.17 1.26 1.31 1.34 1.40 1.44 1.47 1.47 1.46 1.50 1.54 1.58 1.65 1.67
1.26 1.38 1.36 1.29 1.25 1.22 1.16 1.06 1.09 1.18 1.27 1.30 1.31 1.30 1.32 1.38 1.43 1.46 1.51 1.60 1.67 1.70
1.13 1.19 1.24 1.25 1.24 1.22 1.16 1.13 1.12 1.10 1.12 1.14 1.16 1.19 1.23 1.24 1.28 1.38 1.41 1.41 1.52 1.61
1.08 1.06 1.14 1.20 1.23 1.21 1.17 1.18 1.12 1.10 1.12 1.05 1.06 1.10 1.13 1.18 1.22 1.25 1.31 1.34 1.37 1.40
1.33 1.31 1.33 1.28 1.19 1.19 1.22 1.16 1.09 1.05 1.03 1.02 1.01 1.05 1.08 1.13 1.19 1.22 1.28 1.31 1.39 1.47
1.56 1.53 1.56 1.53 1.52 1.50 1.39 1.35 1.33 1.38 1.37 1.30 1.29 1.41 1.46 1.52 1.52 1.49 1.47 1.54 1.63 1.68
1.67 1.69 1.68 1.70 1.70 1.74 1.74 1.68 1.65 1.57 1.56 1.56 1.45 1.48 1.54 1.65 1.68 1.64 1.67 1.74 1.77 1.87
1.77 1.70 1.80 1.81 1.82 1.78 1.76 1.78 1.79 1.79 1.85 1.81 1.80 1.79 1.78 1.76 1.77 1.74 1.74 1.71 1.75 1.86
Wind_Speed
20 18 17 18 17 16 15 16 15 15 15 14 13 12 12 11 10 9 7 5 3 2
21 19 19 18 19 17 16 16 15 16 16 15 14 13 13 13 12 10 9 7 6 5
22 21 20 20 20 19 18 18 17 16 16 16 15 14 13 13 12 12 11 10 8 7
22 22 21 22 20 20 19 19 19 17 16 17 16 15 14 14 13 13 12 11 11 10
22 22 22 22 21 20 20 20 20 19 18 17 17 16 15 15 14 15 14 14 13 13
23 22 22 21 21 21 21 20 20 20 20 19 18 17 16 15 15 15 15 14 14 14
24 23 23 22 21 21 22 22 22 21 21 20 19 18 18 17 17 16 16 17 17 17
24 24 23 22 22 22 21 22 23 23 23 22 22 21 21 21 20 20 20 20 20 21
21 22 22 23 23 22 23 23 23 24 25 25 25 25 25 25 24 24 24 24 25 25
20 20 21 21 22 22 23 24 24 25 26 26 27 27 27 27 27 27 27 27 28 28
21 21 20 20 21 22 22 23 24 25 26 27 27 28 28 29 30 30 30 30 31 31
24 23 22 21 21 21 22 23 23 24 25 27 28 28 29 29 29 30 31 31 31 32
26 25 24 24 24 24 25 25 26 27 27 28 29 30 32 32 33 34 34 33 33 34
27 25 24 25 25 26 28 28 29 30 31 32 32 33 34 35 37 37 37 37 37 37
Wind_Direction
223 224 224 221 216 212 212 209 210 208 207 209 210 210 211 213 215 217 223 235 251 279
222 223 221 219 212 212 212 210 210 211 213 213 212 213 215 218 222 225 232 239 252 271
221 222 221 215 213 214 215 213 213 214 216 215 214 217 218 221 226 231 237 243 252 267
219 219 216 213 214 216 217 216 215 217 215 215 217 221 224 230 233 235 241 247 252 260
215 213 211 213 215 216 218 218 217 217 218 218 222 226 229 235 239 241 244 250 254 260
210 210 212 215 216 218 219 219 219 219 220 221 225 229 233 240 244 246 248 251 257 265
212 214 216 217 217 218 220 221 221 221 222 226 231 235 239 243 247 251 253 256 261 266
213 215 218 217 218 220 222 224 225 226 228 232 237 241 243 247 251 255 259 261 265 268
212 213 214 217 219 222 225 228 229 231 234 239 243 246 248 252 255 258 261 264 267 270
211 211 214 218 222 226 229 232 234 237 241 244 247 249 252 254 257 259 262 265 268 271
214 215 219 222 226 230 233 235 239 242 244 247 251 253 255 256 259 261 263 266 269 272
224 225 227 229 232 235 238 240 243 245 248 250 253 255 257 259 261 263 264 267 270 273
230 231 234 237 240 243 245 247 250 251 254 256 259 259 260 261 263 264 266 268 271 274
231 232 239 243 246 249 250 252 254 256 259 260 262 263 263 263 264 265 266 268 271 274